Theta_e
300 299 299 299 298 298 287 272 268 285 285 272 258 262 264 280 278 279 275 272 270 272 270 263 262 268 268 274 275 268 276 265 263 267 274 274 270 270 273 266 263 267 267 267
300 299 299 299 298 296 280 268 267 283 281 265 261 266 266 273 276 276 276 272 274 267 272 269 265 262 271 271 269 265 271 263 257 259 267 272 266 272 273 273 271 266 264 267
299 299 299 299 298 296 280 269 266 271 270 271 266 262 266 266 276 275 278 277 277 272 266 270 269 271 272 277 273 280 278 271 261 262 265 270 267 270 272 271 266 267 269 271
300 299 299 298 297 296 281 270 265 268 263 265 263 269 262 267 267 275 275 268 270 267 267 268 266 271 270 274 278 273 271 266 261 267 270 270 269 269 269 268 270 267 272 273
300 299 299 298 297 293 277 269 268 267 262 272 268 271 266 268 270 268 269 270 274 272 265 269 268 271 272 271 274 269 265 267 264 265 269 268 266 269 270 270 273 272 274 273
300 299 299 297 297 290 273 279 278 274 269 261 263 264 271 272 274 274 276 273 272 271 272 275 275 276 276 275 273 272 267 268 261 263 263 259 261 265 270 272 275 271 269 275
300 299 299 298 297 293 283 279 277 271 265 264 266 272 274 273 274 272 276 276 270 275 279 279 278 277 276 275 275 276 271 266 268 264 257 257 266 272 274 272 272 275 277 278
300 300 299 299 299 297 289 286 284 276 266 273 274 273 273 274 275 274 274 276 277 278 276 266 259 259 260 263 271 273 275 270 266 262 255 265 269 272 272 270 270 278 277 279
300 300 299 299 299 299 291 288 286 281 275 270 278 273 274 268 268 268 274 278 278 277 271 258 253 252 255 257 261 272 274 273 267 256 257 255 268 275 277 276 267 280 279 279
299 300 300 299 299 299 293 290 290 284 275 275 276 269 271 274 271 272 271 274 274 277 255 256 253 255 263 256 254 258 256 259 265 264 263 266 272 275 276 264 267 278 280 280
299 299 299 300 299 299 295 290 290 286 280 281 280 280 274 272 274 271 272 273 266 261 260 255 258 255 262 260 264 264 264 264 262 257 255 260 274 274 270 274 277 278 280 281
299 299 299 299 299 300 298 287 290 291 285 283 283 284 285 283 282 279 278 275 269 272 262 259 260 260 260 264 261 269 263 267 266 266 267 275 277 276 278 279 277 278 279 282
299 299 299 299 299 299 298 289 291 287 283 283 283 282 285 286 285 285 276 276 279 278 277 273 271 266 270 264 264 266 269 272 268 269 272 273 276 277 278 279 278 280 281 281
300 300 300 300 299 298 299 290 289 289 285 278 279 282 281 286 286 285 283 281 280 278 277 273 271 268 274 269 270 269 271 272 269 269 272 274 276 277 279 280 280 279 280 280
300 300 300 299 298 298 295 289 291 292 285 275 277 281 282 284 284 283 283 281 279 277 274 272 270 274 273 272 272 269 273 270 268 267 274 274 275 279 280 279 279 280 279 279
300 300 300 298 298 298 286 284 288 292 291 282 275 274 273 280 282 281 280 280 279 278 273 271 271 273 272 268 266 272 274 275 276 273 277 277 278 280 281 279 280 280 280 280
299 300 299 298 298 294 286 280 284 291 291 281 275 270 269 274 277 272 272 276 273 274 270 268 272 273 272 268 265 271 274 275 276 277 277 275 278 277 280 279 280 278 277 277
299 299 298 298 298 296 289 292 295 293 284 282 273 271 267 275 268 269 265 262 259 261 266 263 266 269 265 262 267 267 267 266 273 268 273 278 280 280 278 278 273 272 275 277
299 299 298 293 287 285 286 294 294 292 286 277 273 271 270 272 266 262 262 262 258 259 262 261 268 261 265 264 265 266 265 264 264 265 266 276 278 278 278 276 270 273 276 273
297 291 284 282 282 289 287 280 278 278 281 282 275 271 271 272 264 261 264 261 258 256 263 264 265 266 269 267 265 264 264 263 261 258 261 262 263 268 276 273 276 275 277 274
285 284 282 277 287 279 276 273 270 265 265 266 266 273 272 270 265 267 268 263 258 256 262 262 256 260 266 265 263 263 262 261 259 259 260 260 259 261 267 274 273 272 271 270
287 285 281 278 277 274 271 268 263 264 264 262 262 265 268 264 267 267 262 263 257 256 254 256 253 264 261 257 257 258 258 257 255 255 255 255 255 255 256 261 264 270 263 260
286 283 273 272 272 267 263 260 260 260 265 265 266 266 268 266 268 265 263 260 259 255 252 255 261 258 255 252 250 253 254 253 255 254 254 253 253 252 251 251 253 255 254 250
277 273 268 269 267 266 263 262 265 270 270 269 270 265 266 266 266 265 262 262 260 252 247 256 254 254 252 248 248 248 253 253 253 253 251 250 252 251 250 249 250 250 251 248
275 273 267 267 266 260 263 266 266 266 271 269 266 265 267 263 263 261 261 258 256 254 256 256 254 252 249 246 246 247 251 251 252 252 250 247 249 250 250 250 247 247 248 248
277 274 270 264 264 262 261 264 269 269 270 269 268 263 262 261 262 258 258 256 253 258 256 251 248 246 246 246 245 247 249 251 252 252 250 246 246 247 248 248 247 246 243 246
273 270 271 277 274 273 272 269 270 272 269 266 264 260 260 259 259 257 255 255 259 258 250 245 248 247 245 244 243 245 247 247 251 251 252 245 243 243 244 248 247 245 244 241
Wind_Speed
12 13 14 16 19 21 10 4 6 7 7 8 2 3 1 9 7 5 4 3 1 1 2 3 2 3 5 3 4 5 2 4 3 10 19 9 6 6 2 3 9 11 14 16
10 11 12 14 16 14 3 4 2 5 6 6 5 7 5 1 5 4 4 3 2 1 2 6 5 4 8 3 1 2 3 2 5 10 8 7 2 4 9 10 12 19 13 11
9 9 10 11 12 10 6 4 5 6 6 1 5 3 4 6 4 3 3 4 2 3 3 5 4 4 6 5 6 13 10 3 8 10 14 15 19 20 15 14 10 14 15 22
8 8 8 9 8 8 6 4 3 4 4 5 2 1 2 3 4 2 2 6 0 2 5 3 6 5 6 8 15 5 6 6 6 10 18 19 19 24 21 14 20 12 15 22
6 8 7 7 4 6 6 4 4 4 1 1 3 4 4 2 4 2 6 4 8 6 6 10 20 18 14 12 4 3 2 10 5 13 17 15 14 17 23 17 13 11 13 18
5 5 6 4 3 7 3 0 1 5 4 2 4 4 4 6 7 7 9 5 12 13 15 10 10 14 16 16 14 15 7 7 2 22 6 7 12 10 5 12 13 2 9 14
8 6 6 7 3 6 4 3 3 4 5 2 6 4 6 11 10 10 17 12 3 8 9 11 13 14 16 17 20 18 14 9 6 13 4 12 9 4 12 17 7 2 12 13
10 9 7 8 9 10 3 3 3 3 4 5 7 11 8 9 11 8 13 19 11 5 7 7 8 7 7 7 9 12 14 9 6 6 7 14 9 9 4 5 18 2 10 14
12 11 10 9 10 9 3 3 4 3 2 8 7 4 6 5 5 5 7 8 4 1 1 4 2 3 6 8 12 4 6 13 8 2 6 10 8 10 8 9 12 9 7 10
14 14 13 11 11 12 4 4 8 3 3 6 7 5 5 5 2 4 3 5 3 2 2 2 3 6 4 2 3 8 5 5 15 14 13 9 7 11 0 2 8 7 9 13
16 16 16 15 14 13 6 3 10 6 4 11 7 8 6 0 3 5 4 3 4 4 1 4 6 3 7 1 5 3 4 6 6 3 3 18 11 8 7 7 5 11 16 13
18 18 18 18 17 16 11 4 6 10 7 7 7 12 20 19 22 8 7 6 6 5 2 2 1 5 3 10 19 9 11 11 11 9 10 11 18 17 17 18 15 20 16 15
19 20 20 20 20 19 14 4 3 2 5 8 11 14 18 13 18 17 6 4 8 8 6 4 4 10 3 10 10 15 11 19 16 20 23 24 22 25 18 15 16 15 17 15
20 19 19 19 20 20 17 5 3 2 5 8 12 1 4 9 16 17 20 20 1 1 3 6 6 9 6 11 16 18 18 18 22 22 24 23 24 21 22 20 18 10 12 10
21 20 20 21 22 22 12 4 5 8 7 9 12 7 10 10 13 18 16 17 13 8 6 6 9 8 7 10 14 19 15 22 15 19 17 17 26 17 11 12 12 10 9 8
22 21 20 21 21 19 3 5 6 13 8 7 8 4 3 8 14 13 16 13 9 6 4 4 5 5 4 8 16 31 21 22 22 24 24 23 27 27 25 16 18 14 9 10
22 21 21 22 21 8 5 6 4 5 5 4 6 7 5 1 3 1 2 4 4 5 3 5 9 13 5 9 17 29 27 25 24 23 19 23 27 23 14 12 17 8 7 7
22 21 21 23 22 20 12 12 19 7 3 5 5 8 3 5 3 3 0 2 3 2 5 3 5 4 4 6 10 17 19 23 18 22 23 22 25 17 16 12 6 6 9 9
20 22 20 12 4 5 5 15 18 9 10 6 6 8 12 2 1 1 3 2 1 1 3 4 5 2 6 3 5 10 12 13 20 25 23 20 19 22 22 12 9 12 13 8
19 6 2 5 4 8 4 5 2 4 6 9 12 3 9 5 0 1 2 1 4 1 7 1 5 7 11 5 1 6 10 10 14 18 20 22 22 19 19 13 15 13 15 9
2 5 6 2 8 3 2 4 4 3 4 4 4 10 9 3 4 4 3 3 1 3 8 7 4 5 4 3 5 7 8 9 9 10 14 16 18 19 18 13 11 9 7 7
8 3 2 2 3 3 6 6 2 4 8 3 4 4 4 1 3 4 3 5 3 9 1 5 4 4 4 2 5 8 10 10 11 9 11 13 14 15 14 12 11 6 4 4
5 7 5 4 5 8 11 12 6 4 5 5 4 3 4 2 1 2 4 5 8 2 2 7 6 4 2 3 5 7 7 7 8 8 9 10 12 12 10 12 10 10 8 6
7 8 9 10 9 9 8 7 6 7 4 9 7 3 3 2 4 3 5 4 2 3 2 9 4 6 6 5 4 2 8 10 11 9 9 9 10 11 9 8 8 8 7 8
7 7 10 12 6 3 4 3 3 3 5 8 5 2 3 2 3 4 2 2 7 9 8 5 4 6 4 4 2 4 4 6 8 6 7 8 8 7 9 9 8 7 5 6
8 10 6 1 2 3 2 4 7 5 7 3 3 4 4 6 5 6 10 5 9 6 5 4 4 3 4 4 4 5 4 6 8 6 3 5 6 6 7 7 4 5 3 5
8 6 5 13 11 12 9 8 7 9 9 6 5 9 11 4 5 6 6 8 5 4 4 3 6 6 4 5 5 5 5 5 7 5 4 4 4 5 4 5 5 6 4 3
Wind_Direction
6 3 356 355 1 359 40 65 45 306 353 48 36 45 273 341 351 349 10 99 155 311 175 289 305 267 237 12 345 316 309 209 273 278 289 282 176 307 80 344 307 273 270 262
359 1 355 356 2 24 71 76 231 322 43 67 358 321 337 320 347 329 339 297 205 30 342 305 186 248 265 269 51 234 306 278 331 339 348 345 27 265 304 301 273 265 273 282
351 353 355 356 1 28 80 73 27 334 38 37 118 35 312 330 299 286 292 311 63 32 305 231 279 264 283 318 216 276 294 258 186 268 270 287 294 291 292 288 280 284 264 296
338 340 348 360 11 24 87 35 263 179 323 333 28 126 171 313 338 309 27 341 312 180 290 285 242 257 277 279 282 288 163 253 242 249 268 278 277 283 289 283 269 267 309 315
332 329 336 348 29 56 74 103 88 352 232 290 48 346 279 230 294 157 290 212 286 301 240 243 282 282 277 264 266 185 302 266 263 269 277 284 283 281 278 263 269 278 306 308
333 321 308 328 96 85 99 253 352 105 280 48 77 235 232 281 331 280 221 253 308 295 278 276 270 262 259 250 258 259 245 261 271 279 266 323 284 246 254 300 288 296 314 318
323 308 297 288 183 153 139 176 113 96 268 150 202 220 226 270 265 254 281 292 212 252 311 292 277 261 253 250 250 243 243 234 242 275 40 261 249 243 290 283 283 276 313 309
311 308 291 281 275 179 138 148 157 158 252 232 245 240 242 259 263 265 274 279 253 294 309 317 346 327 2 290 248 251 223 244 258 246 220 276 296 271 240 273 300 175 281 295
296 298 299 285 271 252 141 176 157 162 248 228 231 215 204 221 241 327 251 279 262 270 48 59 244 265 246 307 324 337 207 220 222 140 236 253 288 260 259 307 287 212 298 296
283 284 282 283 280 264 207 198 186 187 231 232 162 193 197 173 198 233 268 268 286 135 92 156 215 242 204 275 215 293 305 317 233 238 257 262 249 256 219 206 248 333 328 300
277 276 277 277 272 274 261 212 177 194 228 264 216 195 178 293 182 226 241 305 342 37 122 140 240 186 238 167 222 224 248 290 277 301 264 274 229 268 189 229 316 308 311 286
273 273 272 273 273 268 264 241 186 205 222 257 221 231 235 231 234 246 191 223 170 218 131 262 356 301 295 271 277 258 255 245 266 231 265 307 302 282 287 288 286 292 293 284
273 271 270 270 269 271 263 229 179 201 264 259 242 246 239 232 221 218 227 234 211 221 198 257 231 245 228 263 257 255 254 255 258 268 267 272 269 278 276 279 274 277 283 279
269 268 268 267 267 268 267 243 187 185 273 269 272 330 185 217 216 219 213 235 226 186 166 230 241 255 207 261 267 270 268 281 268 267 273 275 269 264 267 271 275 271 275 258
272 271 269 270 272 273 275 233 210 215 225 272 281 250 223 218 208 218 218 222 228 227 231 226 250 251 257 258 274 265 265 265 262 266 270 271 275 277 273 265 268 260 272 272
272 274 272 270 271 270 61 277 232 219 206 269 280 297 231 219 217 215 219 215 214 206 187 211 244 202 221 269 270 274 273 262 252 260 262 264 260 263 273 271 269 258 240 235
272 274 275 273 269 251 201 206 224 157 142 263 282 276 281 184 121 225 201 194 205 184 199 231 246 259 248 260 268 290 314 300 282 271 273 265 257 260 270 240 254 251 246 237
273 273 274 274 269 267 250 240 248 210 225 219 226 256 339 176 191 226 66 153 42 280 203 334 232 286 174 244 3 337 335 327 331 341 318 272 275 275 267 259 225 211 220 223
274 278 285 290 236 234 224 230 236 216 214 247 208 241 275 117 158 127 33 76 1 256 194 232 129 259 216 202 336 343 349 344 311 313 303 299 269 261 262 240 229 233 236 205
271 302 247 240 204 130 87 24 218 228 220 233 243 133 235 135 199 295 98 64 221 215 232 69 198 236 113 87 32 316 331 336 333 327 333 327 311 315 280 235 237 228 245 218
122 216 227 237 150 87 156 228 181 235 268 234 252 211 213 200 140 173 204 187 205 177 248 168 250 255 157 53 330 322 316 328 335 299 297 309 301 300 312 281 238 221 218 212
200 190 94 132 178 203 196 197 257 197 225 234 177 219 181 229 119 137 207 192 94 236 140 107 255 208 174 180 293 305 316 330 328 313 318 329 326 328 318 318 323 271 170 152
213 205 155 170 191 206 192 193 227 225 212 194 181 186 142 92 150 132 150 189 225 48 60 218 226 148 156 236 261 302 298 303 309 319 340 337 337 345 344 342 346 346 4 12
181 189 209 202 204 228 192 189 193 205 180 168 159 118 150 143 174 157 205 222 73 8 356 233 209 203 221 218 211 252 305 313 318 331 340 332 350 341 332 342 347 348 9 341
202 192 222 215 215 225 209 198 102 209 153 134 113 96 140 157 188 200 169 192 229 205 223 220 200 202 217 234 228 249 269 293 307 326 334 319 330 336 328 337 339 352 356 4
210 206 219 69 132 252 194 188 216 151 143 87 99 145 165 198 191 170 208 178 216 230 209 204 141 200 228 244 244 255 267 278 284 292 298 295 312 320 311 315 342 350 348 341
207 226 230 230 236 234 211 188 195 156 152 183 156 183 208 113 182 207 191 205 211 179 210 207 176 185 216 240 255 263 261 265 274 277 294 267 280 292 316 343 310 321 312 273